Location: Hurecourt
(47.9030°N, 6.0653°E)
Time: 10:32:42
(UTC+00:00)

Cosmos 1741 Rocket - Pass Details

Date: 14 July 2020
Orbit: 761 x 783 km, 74.0° (Epoch: 06 August)

Event Time Altitude Azimuth Distance (km) Brightness Sun altitude
Exits shadow 03:04:19 - 210° (SSW) 2,521 6.1 -7.0°
Reaches altitude 10° 03:04:55 10° 210° (SSW) 2,289 5.8 -6.9°
Maximum altitude 03:10:06 70° 294° (WNW) 814 4.1 -6.3°
Drops below altitude 10° 03:15:20 10° 19° (NNE) 2,312 7.6 -5.6°
Sets 03:17:44 0° 22° (NNE) 3,245 8.5 -5.3°
